Location: Deubach
(50.9320°N, 10.4350°E)
Time: 20:38:23
(UTC+00:00)

Daily predictions for brighter satellites

Satellite Brightness Start Highest point End
(mag) Time Altitude Azimuth Time Altitude Azimuth Time Altitude Azimuth
NOSS 3-2 (A) 3.3 15:43:04 10° SSW 15:48:04 71° SE 15:54:10 10° NE
NOSS 3-2 (C) 4.0 15:45:31 10° S 15:49:59 33° ESE 15:55:10 10° NE
Cosmos 1656 3.9 15:44:51 10° S 15:50:20 57° ESE 15:55:55 10° NE
SL-08 ROCKET BODY 4.5 15:44:41 10° N 15:50:35 60° ENE 15:56:31 10° SSE
Cosmos 1758 Rocket 3.6 15:47:08 10° N 15:51:24 57° ENE 15:55:36 10° SSE
Cosmos 2208 Rocket 4.0 15:48:11 10° NNW 15:53:24 84° ENE 15:58:35 10° SSE
Cosmos 2098 Rocket 3.6 15:50:45 10° SSE 15:54:45 41° E 15:59:26 10° NNE
NOSS 2-2 (E) 3.1 15:52:22 10° SSW 15:55:36 51° SE 15:58:33 10° NE
Cosmos 724 4.4 15:50:49 10° NW 15:56:56 85° NE 16:02:51 10° SE
Meteor 1-20 Rocket 4.4 15:52:48 10° N 15:58:05 46° ENE 16:03:19 10° SE
CZ-4C R/B 2.9 15:53:03 10° NW 15:59:44 77° NE 16:08:12 10° SE
Cosmos 2266 Rocket 4.2 15:55:08 10° N 16:01:04 47° ENE 16:06:53 10° SE
Cosmos 405 Rocket 2.7 15:59:38 10° NNW 16:02:52 66° W 16:06:02 10° S
CBERS-1 4.0 15:59:58 10° SSE 16:05:04 81° ENE 16:10:13 10° NNW
SMAP 3.3 16:02:02 10° SE 16:06:31 49° ENE 16:11:02 10° N
Cosmos 2297 Rocket 2.3 16:03:18 10° NNW 16:09:01 87° WSW 16:14:42 10° SSE
Landsat 7 4.1 16:06:58 10° SE 16:11:21 43° ENE 16:15:46 10° N
[s.n.66845] 3.8 16:12:08 10° NNE 16:12:44 11° NE 16:12:44 11° NE
[s.n.66847] 3.8 16:12:33 10° NNE 16:13:11 11° NE 16:13:11 11° NE
Cosmos 1626 Rocket 3.8 16:09:23 10° NNW 16:13:42 75° W 16:17:59 10° S
[s.n.66846] 3.8 16:12:57 10° NNE 16:13:36 11° NE 16:13:36 11° NE
[s.n.66843] 3.8 16:13:28 10° NNE 16:14:08 11° NE 16:14:08 11° NE
Meteor 1-28 Rocket 2.9 16:11:15 10° NNE 16:14:34 59° E 16:17:51 10° S
[s.n.66844] 3.8 16:13:53 10° NNE 16:14:35 11° NE 16:14:35 11° NE
[s.n.66842] 3.8 16:14:24 10° NNE 16:15:06 11° NNE 16:15:06 11° NNE
[s.n.66841] 3.8 16:14:49 10° NNE 16:15:33 12° NNE 16:15:33 12° NNE
[s.n.66840] 3.8 16:15:18 10° NNE 16:16:03 12° NNE 16:16:03 12° NNE
[s.n.66838] 3.8 16:15:46 10° NNE 16:16:31 12° NNE 16:16:31 12° NNE
NOSS 2-2 (C) 3.6 16:14:09 10° WSW 16:17:07 39° NW 16:19:48 11° NNE
[s.n.66839] 3.8 16:16:14 10° NNE 16:17:01 12° NNE 16:17:01 12° NNE
[s.n.66837] 3.8 16:16:40 10° NNE 16:17:28 12° NNE 16:17:28 12° NNE
[s.n.66836] 3.7 16:17:09 10° NNE 16:17:57 12° NNE 16:17:57 12° NNE
[s.n.66835] 3.7 16:17:38 10° NNE 16:18:27 12° NNE 16:18:27 12° NNE
[s.n.66834] 3.7 16:18:07 10° NNE 16:18:57 12° NNE 16:18:57 12° NNE
[s.n.66833] 3.7 16:18:32 10° NNE 16:19:22 12° NNE 16:19:22 12° NNE
[s.n.66832] 3.7 16:19:03 10° NNE 16:19:54 12° NNE 16:19:54 12° NNE
[s.n.66831] 3.7 16:19:27 10° NNE 16:20:19 12° NNE 16:20:19 12° NNE
[s.n.66830] 3.7 16:19:53 10° NNE 16:20:45 13° NNE 16:20:45 13° NNE
[s.n.66828] 3.7 16:20:18 10° NNE 16:21:11 13° NNE 16:21:11 13° NNE
[s.n.66829] 3.7 16:20:48 10° NNE 16:21:42 13° NNE 16:21:42 13° NNE
Cosmos 1315 Rocket 4.2 16:19:11 10° SW 16:22:45 36° WNW 16:26:20 10° N
[s.n.66827] 3.7 16:21:19 10° N 16:22:13 13° NNE 16:22:13 13° NNE
[s.n.66826] 3.7 16:21:49 10° N 16:22:43 13° NNE 16:22:43 13° NNE
[s.n.66825] 3.7 16:22:14 10° N 16:23:09 13° NNE 16:23:09 13° NNE
Cosmos 1606 Rocket 4.3 16:20:06 10° SSE 16:24:04 33° E 16:28:03 10° NNE
[s.n.66824] 3.7 16:22:44 10° N 16:23:40 13° NNE 16:23:40 13° NNE
[s.n.66823] 3.7 16:23:14 10° N 16:24:11 13° NNE 16:24:11 13° NNE
[s.n.66822] 3.7 16:23:43 10° N 16:24:39 13° NNE 16:24:39 13° NNE
ATLAS CENTAUR R/B 3.4 16:22:42 10° WNW 16:25:22 24° WSW 16:27:59 10° S
[s.n.66821] 3.7 16:24:09 10° N 16:25:07 13° NNE 16:25:07 13° NNE
Thor Agena Rocket 3.6 16:22:18 10° SSE 16:27:31 90° WSW 16:32:42 10° NNW
Cosmos 1503 Rocket 4.1 16:23:22 10° S 16:28:29 57° ESE 16:33:35 10° NNE
Cosmos 2219 3.9 16:23:36 10° NNW 16:28:47 33° NE 16:33:57 10° ESE
CENTAUR R/B 3.3 16:24:16 10° WSW 16:30:08 47° NNW 16:36:57 12° NE
Cosmos 1484 Rocket 3.8 16:28:52 10° S 16:32:14 44° W 16:35:37 10° NNW
USA 290 3.5 16:29:39 10° NW 16:32:47 45° WSW 16:35:54 10° S
SL-16 R/B 2.7 16:26:40 10° NNE 16:32:55 81° WNW 16:39:07 10° SSW
Cosmos 1544 Rocket 3.8 16:28:50 10° SSW 16:33:14 73° WNW 16:37:40 10° N
GEOS 3 Rocket 3.9 16:28:50 14° NE 16:33:30 57° SE 16:38:46 10° SSW
AQUARIUS 4.2 16:30:13 10° SE 16:34:29 52° ENE 16:38:48 10° N
Cosmos 1980 Rocket 3.3 16:31:09 10° SSE 16:35:30 23° ESE 16:37:57 17° ENE
Lacrosse 5 rocket 2.0 16:32:04 10° W 16:35:32 35° NNW 16:37:41 19° NE
Cosmos 1844 Rocket 4.1 16:31:47 10° N 16:35:38 18° NNE 16:37:19 16° NE
Cosmos 1354 Rocket 4.3 16:33:04 10° S 16:38:07 49° ESE 16:42:34 13° NE
Meteor 1-25 Rocket 4.2 16:32:53 10° N 16:38:44 73° ENE 16:44:30 10° SSE
Meteor 1-5 Rocket 4.3 16:33:37 10° N 16:38:48 50° ENE 16:44:06 10° SSE
Lacrosse 4 Rocket 3.4 16:37:27 10° W 16:40:24 19° NW 16:43:19 10° N
BREEZE M DEB (TANK) 3.3 16:38:33 10° SW 16:40:33 23° SSE 16:41:17 19° SE
CORIOLIS 4.3 16:36:25 10° SSE 16:41:45 80° WSW 16:47:08 10° NNW
IRIDIUM 104 4.3 16:38:11 10° N 16:43:27 87° E 16:48:41 10° S
Cosmos 2263 Rocket 2.3 16:38:25 10° NNW 16:43:58 53° NE 16:49:32 10° SE
Cosmos 1777 Rocket 4.0 16:39:24 10° SSW 16:44:41 87° ESE 16:49:53 10° NNE
Cosmos 1726 Rocket 4.0 16:43:33 10° SSE 16:47:56 43° E 16:51:54 12° NNE
CZ-2D R/B 2.6 16:45:18 10° SSE 16:48:26 82° ENE 16:51:36 10° NNW
USA 238 DEB 4.3 16:45:20 10° S 16:50:38 32° ESE 16:53:47 21° ENE
USA 238 4.3 16:45:27 10° S 16:50:45 32° ESE 16:53:52 21° ENE
Okean 1-7 Rocket 3.6 16:46:21 10° NNW 16:50:45 84° W 16:55:06 10° S
IRIDIUM 114 4.5 16:47:20 10° N 16:52:35 79° W 16:57:48 10° S
NOSS 3 (A) 4.4 16:50:28 10° NNW 16:52:32 44° NE 16:52:32 44° NE
Cosmos 1602 Rocket 4.3 16:48:20 10° NNW 16:52:39 56° W 16:56:54 10° S
ERS-1 4.4 16:49:00 10° SSE 16:54:00 83° ENE 16:59:00 10° NNW
Cosmos 1461 2.7 16:52:24 10° SW 16:56:19 85° NW 16:58:30 26° NE
Cosmos 1933 3.1 16:54:11 10° S 16:58:00 77° E 17:01:21 13° NNE
USA 215 3.6 16:53:50 21° ENE 16:58:11 53° N 17:04:32 10° WNW
IRS-1C 4.3 16:54:25 10° SSE 16:59:44 78° WSW 17:05:06 10° NNW
Cosmos 2227 Rocket 2.3 16:54:47 10° NNW 17:00:27 80° WSW 17:06:06 10° SSE
YAOGAN 1 3.0 16:56:34 10° SE 17:00:29 38° ENE 17:04:27 10° N
SKYMED 2 4.1 16:58:49 26° NE 17:00:29 36° E 17:04:29 10° SSE
Cosmos-2242 4.0 16:57:12 10° SE 17:00:12 26° ESE 17:00:12 26° ESE
BREEZE-M DEB (TANK) 4.5 16:59:22 10° SSW 17:01:39 15° SSE 17:02:20 14° SE
NOSS 2-3 (E) 3.7 16:59:25 10° SSW 17:02:50 39° SE 17:03:39 34° E
NOSS 2-3 (D) 3.8 17:00:06 10° SSW 17:03:31 37° SE 17:04:14 34° E
SJ-12 4.0 17:00:50 10° S 17:04:34 69° WSW 17:08:22 10° NNW
Cosmos 2369 Rocket 4.4 17:02:20 10° WNW 17:05:29 15° NNW 17:08:39 10° N
Cosmos 2151 4.3 17:02:47 10° NNW 17:06:42 40° W 17:10:36 10° SSW
Cosmos 1655 Rocket 3.9 17:06:25 10° N 17:12:42 81° E 17:18:55 10° SSE
Meteor 2-10 4.1 17:08:35 10° N 17:13:54 61° ENE 17:19:22 10° SSE
Cosmos 1697 Rocket 2.6 17:09:50 10° SSW 17:15:27 87° ESE 17:19:15 22° NNE
Cosmos 990 Rocket 3.8 17:10:37 10° SSW 17:15:44 82° ESE 17:19:09 22° NNE
CZ-4 R/B 4.2 17:12:04 10° SSE 17:15:59 79° ENE 17:19:57 10° NNW
Cosmos 1953 Rocket 3.4 17:12:05 10° N 17:16:32 80° ENE 17:20:59 10° SSE
MOS 1 Rocket 3.7 17:12:25 10° S 17:17:21 72° WSW 17:22:35 10° NNW
Aureole 1 Rocket 3.7 17:13:48 10° S 17:18:06 44° ESE 17:19:37 35° ENE
ARIANE 5 R/B 3.5 17:19:55 10° S 17:24:48 47° W 17:29:47 10° NNW
Cosmos 1825 Rocket 4.4 17:21:35 10° NNW 17:25:49 51° W 17:29:59 10° S
Resurs 01 Rocket 3.8 17:29:46 12° N 17:29:46 12° N 17:30:10 10° N
COSMOS 2455 4.4 17:27:28 10° SSE 17:29:38 17° SE 17:29:38 17° SE
Cosmos 1680 Rocket 3.9 17:27:09 10° NNW 17:31:45 40° NE 17:31:45 40° NE
NOAA 6 4.0 17:27:11 10° SE 17:32:10 57° ENE 17:37:09 10° N
USA 81 3.9 17:28:16 10° N 17:33:35 82° E 17:38:51 10° S
CZ-2D R/B 3.4 17:31:48 10° SSE 17:36:00 85° WSW 17:40:10 10° NNW
Radarsat Rocket 4.5 17:29:31 10° SSE 17:37:37 80° ENE 17:44:49 10° NNW
IRAS Rocket 4.1 17:33:02 10° SSE 17:38:31 76° ENE 17:44:00 10° NNW
NOSS 3-2 (A) 4.3 17:34:16 10° W 17:39:20 38° NNW 17:42:25 24° NNE
Gbstr 26 Del rocket 2.7 17:35:49 10° WSW 17:39:37 64° S 17:39:37 64° S
Meteor 2-2 Rocket 4.2 17:34:26 10° S 17:39:57 58° E 17:41:51 39° NE
NOSS 3-2 (C) 3.6 17:35:12 10° WSW 17:40:23 59° NW 17:43:16 31° NNE
SPOT 1/Viking Rocket 3.8 17:36:33 10° S 17:41:44 68° WSW 17:46:57 10° NNW
PSLV R/B 3.2 17:43:07 66° SSE 17:43:39 84° ENE 17:47:44 10° NNW
Cosmos 1076 Rocket 4.3 17:39:43 10° NNW 17:43:54 51° W 17:48:04 10° S
SL-19 R/B 4.1 17:41:53 10° SSE 17:47:17 88° ENE 17:53:03 10° NNW
Cosmos 2082 3.6 17:42:02 10° NNW 17:47:47 81° ENE 17:50:41 31° SE
CZ-4C R/B 4.5 17:41:30 10° NW 17:47:58 37° WSW 17:55:38 10° S
COSMO-SKYMED 1 3.0 17:49:12 46° S 17:49:12 46° S 17:52:13 10° S
Cosmos 2058 Rocket 2.9 17:45:53 10° S 17:50:22 86° ESE 17:50:45 75° NNE
Meteor 2-11 Rocket 4.3 17:53:50 10° N 18:00:01 72° ENE 18:06:09 10° SSE
Nadezhda 2 Rocket 4.4 17:55:34 10° N 18:01:44 88° WSW 18:07:50 10° S
Meteor 1-26 Rocket 4.0 17:58:54 10° S 18:04:19 89° E 18:05:34 55° NNE
Cosmos 1553 Rocket 3.8 18:05:27 10° S 18:11:37 86° E 18:14:52 31° NNE
Lacrosse 5 rocket 3.3 18:09:48 10° WNW 18:11:16 20° NW 18:11:16 20° NW
Cosmos 2219 3.7 18:07:37 10° NW 18:13:15 58° WSW 18:17:57 15° S
Cosmos 1980 Rocket 2.3 18:13:19 10° SW 18:18:57 71° WNW 18:19:44 61° N
Cosmos 1844 Rocket 3.4 18:15:05 10° NNW 18:18:59 42° N 18:18:59 42° N
USA 281 4.3 18:22:44 30° NNE 18:22:44 30° NNE 18:26:36 10° NNW
CENTAUR R/B 4.0 18:16:29 10° WNW 18:22:33 32° N 18:24:02 30° NNE
Cosmos 1745 Rocket 4.2 18:19:54 10° N 18:24:48 57° N 18:24:48 57° N
Cosmos 2263 Rocket 3.8 18:22:40 10° NW 18:27:40 32° WSW 18:32:39 10° SSW
Cosmos 1898 Rocket 3.9 18:25:50 10° SSW 18:30:11 58° WSW 18:30:11 58° WSW
Cosmos 2369 4.0 18:26:08 10° SSW 18:30:42 59° SSW 18:30:42 59° SSW
USA 215 3.3 18:41:10 69° N 18:41:10 69° N 18:47:21 10° WNW
USA 238 DEB 3.6 18:34:50 10° SW 18:41:01 70° NW 18:41:14 69° NNW
USA 238 3.6 18:34:56 10° SW 18:41:08 71° NW 18:41:19 70° NNW
Cosmos 1697 Rocket 4.5 18:55:37 10° W 19:00:08 24° NW 19:00:59 23° NNW
